Time,TemperatureF,DewpointF,PressureIn,WindDirection,WindDirectionDegrees,WindSpeedMPH,WindSpeedGustMPH,Humidity,HourlyPrecipIn,Conditions,Clouds,dailyrainin,SoftwareType,DateUTC
2013-02-09 00:08:00,30.5,23.5,30.43,SE,126,0.0,0.0,75,0.00,,,0.00,Wunderground v.1.15,2013-02-09 06:08:00,
2013-02-09 00:18:00,30.5,23.5,30.43,South,173,0.0,0.0,75,0.00,,,0.00,Wunderground v.1.15,2013-02-09 06:18:00,
2013-02-09 00:28:00,30.7,23.7,30.43,South,172,0.0,0.0,75,0.00,,,0.00,Wunderground v.1.15,2013-02-09 06:28:00,
2013-02-09 00:34:00,30.7,23.7,30.43,SSE,157,0.0,0.0,75,0.00,,,0.00,Wunderground v.1.15,2013-02-09 06:34:00,
2013-02-09 00:48:00,30.7,23.7,30.42,SE,135,0.0,0.0,75,0.00,,,0.00,Wunderground v.1.15,2013-02-09 06:48:00,
2013-02-09 00:53:00,30.7,24.0,30.42,ESE,109,0.0,0.0,76,0.00,,,0.00,Wunderground v.1.15,2013-02-09 06:53:00,
2013-02-09 01:03:00,30.7,24.0,30.42,ESE,114,0.0,0.0,76,0.00,,,0.00,Wunderground v.1.15,2013-02-09 07:03:00,
2013-02-09 01:13:00,30.8,24.1,30.42,South,172,0.0,0.0,76,0.00,,,0.00,Wunderground v.1.15,2013-02-09 07:13:00,
2013-02-09 01:28:00,30.8,24.1,30.43,SSE,162,0.0,0.0,76,0.00,,,0.00,Wunderground v.1.15,2013-02-09 07:28:00,
2013-02-09 01:38:00,30.8,24.1,30.43,SE,127,0.0,0.0,76,0.00,,,0.00,Wunderground v.1.15,2013-02-09 07:38:00,
2013-02-09 01:48:00,30.7,23.7,30.43,SSE,158,0.0,0.0,75,0.00,,,0.00,Wunderground v.1.15,2013-02-09 07:48:00,
2013-02-09 01:53:00,30.5,23.2,30.42,SE,126,0.0,0.0,74,0.00,,,0.00,Wunderground v.1.15,2013-02-09 07:53:00,
2013-02-09 02:03:00,30.7,23.7,30.42,SSE,153,0.0,0.0,75,0.00,,,0.00,Wunderground v.1.15,2013-02-09 08:03:00,
2013-02-09 02:13:00,30.7,23.7,30.42,ESE,122,0.0,0.0,75,0.00,,,0.00,Wunderground v.1.15,2013-02-09 08:13:00,
2013-02-09 02:23:00,30.7,23.7,30.42,SE,127,0.0,0.0,75,0.00,,,0.00,Wunderground v.1.15,2013-02-09 08:23:00,
2013-02-09 02:34:00,30.7,23.7,30.42,SSE,157,0.0,0.0,75,0.00,,,0.00,Wunderground v.1.15,2013-02-09 08:34:00,
2013-02-09 02:44:00,30.7,23.7,30.42,SE,136,0.0,0.0,75,0.00,,,0.00,Wunderground v.1.15,2013-02-09 08:44:00,
2013-02-09 02:58:00,30.8,23.8,30.42,ESE,106,0.0,0.0,75,0.00,,,0.00,Wunderground v.1.15,2013-02-09 08:58:00,
2013-02-09 03:03:00,30.8,23.8,30.41,SE,128,0.0,0.0,75,0.00,,,0.00,Wunderground v.1.15,2013-02-09 09:03:00,
2013-02-09 03:13:00,30.8,23.8,30.42,SE,127,0.0,0.0,75,0.00,,,0.00,Wunderground v.1.15,2013-02-09 09:13:00,
2013-02-09 03:23:00,30.8,23.8,30.42,SSE,161,0.0,0.0,75,0.00,,,0.00,Wunderground v.1.15,2013-02-09 09:23:00,
2013-02-09 03:33:00,31.0,24.0,30.42,South,170,0.0,0.0,75,0.00,,,0.00,Wunderground v.1.15,2013-02-09 09:33:00,
2013-02-09 03:43:00,31.1,24.4,30.42,SSE,163,0.0,0.0,76,0.00,,,0.00,Wunderground v.1.15,2013-02-09 09:43:00,
2013-02-09 03:53:00,30.8,23.5,30.42,SSE,160,0.0,0.0,74,0.00,,,0.00,Wunderground v.1.15,2013-02-09 09:53:00,
2013-02-09 04:03:00,30.8,23.5,30.43,SE,142,0.0,0.0,74,0.00,,,0.00,Wunderground v.1.15,2013-02-09 10:03:00,
2013-02-09 04:18:00,30.8,23.2,30.42,SSE,150,0.0,0.0,73,0.00,,,0.00,Wunderground v.1.15,2013-02-09 10:18:00,
2013-02-09 04:23:00,31.0,23.4,30.42,South,174,0.0,0.0,73,0.00,,,0.00,Wunderground v.1.15,2013-02-09 10:23:00,
2013-02-09 04:33:00,31.0,23.4,30.41,SE,131,0.0,0.0,73,0.00,,,0.00,Wunderground v.1.15,2013-02-09 10:33:00,
2013-02-09 04:44:00,31.1,23.8,30.41,SE,132,0.0,0.0,74,0.00,,,0.00,Wunderground v.1.15,2013-02-09 10:44:00,
2013-02-09 04:53:00,31.1,23.5,30.41,SE,146,0.0,0.0,73,0.00,,,0.00,Wunderground v.1.15,2013-02-09 10:53:00,
2013-02-09 05:08:00,31.1,23.8,30.41,SSE,157,0.0,0.0,74,0.00,,,0.00,Wunderground v.1.15,2013-02-09 11:08:00,
2013-02-09 05:14:00,31.1,23.8,30.41,SSE,152,0.0,0.0,74,0.00,,,0.00,Wunderground v.1.15,2013-02-09 11:14:00,
2013-02-09 05:28:00,31.3,24.3,30.41,SE,136,0.0,0.0,75,0.00,,,0.00,Wunderground v.1.15,2013-02-09 11:28:00,
2013-02-09 05:33:00,31.4,24.4,30.41,SE,128,0.0,0.0,75,0.00,,,0.00,Wunderground v.1.15,2013-02-09 11:33:00,
2013-02-09 05:48:00,31.1,23.8,30.41,SE,141,0.0,0.0,74,0.00,,,0.00,Wunderground v.1.15,2013-02-09 11:48:00,
2013-02-09 05:54:00,31.1,23.5,30.41,SE,142,0.0,0.0,73,0.00,,,0.00,Wunderground v.1.15,2013-02-09 11:54:00,
2013-02-09 06:08:00,31.3,24.3,30.40,SE,137,0.0,0.0,75,0.00,,,0.00,Wunderground v.1.15,2013-02-09 12:08:00,
2013-02-09 06:13:00,31.3,23.6,30.41,SSE,150,0.0,0.0,73,0.00,,,0.00,Wunderground v.1.15,2013-02-09 12:13:00,
2013-02-09 06:28:00,31.4,23.7,30.40,SSE,150,0.0,0.0,73,0.00,,,0.00,Wunderground v.1.15,2013-02-09 12:28:00,
2013-02-09 06:38:00,31.4,23.7,30.40,SSE,152,0.0,0.0,73,0.00,,,0.00,Wunderground v.1.15,2013-02-09 12:38:00,
2013-02-09 06:48:00,31.4,24.1,30.40,SE,130,0.0,0.0,74,0.00,,,0.00,Wunderground v.1.15,2013-02-09 12:48:00,
2013-02-09 06:58:00,31.4,24.1,30.40,SE,125,0.0,0.0,74,0.00,,,0.00,Wunderground v.1.15,2013-02-09 12:58:00,
2013-02-09 07:03:00,31.4,24.1,30.40,SE,132,0.0,0.0,74,0.00,,,0.00,Wunderground v.1.15,2013-02-09 13:03:00,
2013-02-09 07:13:00,31.3,23.6,30.40,SE,132,0.0,0.0,73,0.00,,,0.00,Wunderground v.1.15,2013-02-09 13:13:00,
2013-02-09 07:23:00,31.4,23.7,30.41,ESE,122,0.0,0.0,73,0.00,,,0.00,Wunderground v.1.15,2013-02-09 13:23:00,
2013-02-09 07:33:00,31.5,24.2,30.41,SE,130,0.0,0.0,74,0.00,,,0.00,Wunderground v.1.15,2013-02-09 13:33:00,
2013-02-09 07:43:00,31.5,23.8,30.41,SE,135,0.0,0.0,73,0.00,,,0.00,Wunderground v.1.15,2013-02-09 13:43:00,
2013-02-09 07:53:00,31.5,23.8,30.42,SE,131,0.0,0.0,73,0.00,,,0.00,Wunderground v.1.15,2013-02-09 13:53:00,
2013-02-09 08:03:00,31.7,24.0,30.41,SE,133,0.0,0.0,73,0.00,,,0.00,Wunderground v.1.15,2013-02-09 14:03:00,
2013-02-09 08:18:00,31.7,24.0,30.41,SE,131,0.0,0.0,73,0.00,,,0.00,Wunderground v.1.15,2013-02-09 14:18:00,
2013-02-09 08:23:00,32.0,24.6,30.40,SSE,157,0.0,0.0,74,0.00,,,0.00,Wunderground v.1.15,2013-02-09 14:23:00,
2013-02-09 08:38:00,32.3,24.9,30.40,SE,132,0.0,0.0,74,0.00,,,0.00,Wunderground v.1.15,2013-02-09 14:38:00,
2013-02-09 08:43:00,32.3,24.9,30.40,SE,134,0.0,0.0,74,0.00,,,0.00,Wunderground v.1.15,2013-02-09 14:43:00,
2013-02-09 08:54:00,32.4,24.7,30.40,South,173,0.0,0.0,73,0.00,,,0.00,Wunderground v.1.15,2013-02-09 14:54:00,
2013-02-09 09:03:00,32.3,24.3,30.40,SSE,154,0.0,0.0,72,0.00,,,0.00,Wunderground v.1.15,2013-02-09 15:03:00,
2013-02-09 09:18:00,32.4,24.4,30.41,SSE,160,0.0,0.0,72,0.00,,,0.00,Wunderground v.1.15,2013-02-09 15:18:00,
2013-02-09 09:23:00,32.4,24.4,30.42,South,170,0.0,0.0,72,0.00,,,0.00,Wunderground v.1.15,2013-02-09 15:23:00,
2013-02-09 09:33:00,32.4,24.4,30.42,SSE,159,0.0,0.0,72,0.00,,,0.00,Wunderground v.1.15,2013-02-09 15:33:00,
2013-02-09 09:48:00,32.7,25.0,30.40,SE,143,0.0,0.0,73,0.00,,,0.00,Wunderground v.1.15,2013-02-09 15:48:00,
2013-02-09 09:53:00,32.9,25.2,30.40,SE,141,0.0,0.0,73,0.00,,,0.00,Wunderground v.1.15,2013-02-09 15:53:00,
2013-02-09 10:08:00,33.0,25.0,30.40,SSE,159,0.0,0.0,72,0.00,,,0.00,Wunderground v.1.15,2013-02-09 16:08:00,
2013-02-09 10:13:00,33.2,25.5,30.39,SE,142,0.0,0.0,73,0.00,,,0.00,Wunderground v.1.15,2013-02-09 16:13:00,
2013-02-09 10:23:00,33.3,25.2,30.39,SE,140,0.0,0.0,72,0.00,,,0.00,Wunderground v.1.15,2013-02-09 16:23:00,
2013-02-09 10:38:00,33.5,25.4,30.38,SE,136,0.0,0.0,72,0.00,,,0.00,Wunderground v.1.15,2013-02-09 16:38:00,
2013-02-09 10:43:00,33.5,25.4,30.38,SSE,150,0.0,0.0,72,0.00,,,0.00,Wunderground v.1.15,2013-02-09 16:43:00,
2013-02-09 10:53:00,33.8,26.1,30.38,SE,132,0.0,0.0,73,0.00,,,0.00,Wunderground v.1.15,2013-02-09 16:53:00,
2013-02-09 11:03:00,34.1,25.7,30.37,SSE,154,0.0,0.0,71,0.00,,,0.00,Wunderground v.1.15,2013-02-09 17:03:00,
2013-02-09 11:13:00,34.2,26.1,30.37,SSE,154,0.0,0.0,72,0.00,,,0.00,Wunderground v.1.15,2013-02-09 17:13:00,
2013-02-09 11:23:00,34.2,25.4,30.37,SE,142,0.0,0.0,70,0.00,,,0.00,Wunderground v.1.15,2013-02-09 17:23:00,
2013-02-09 11:34:00,34.5,26.1,30.37,SSE,162,0.0,0.0,71,0.00,,,0.00,Wunderground v.1.15,2013-02-09 17:34:00,
2013-02-09 11:43:00,34.4,25.6,30.37,SE,140,0.0,0.0,70,0.00,,,0.00,Wunderground v.1.15,2013-02-09 17:43:00,
2013-02-09 11:53:00,34.7,26.6,30.36,SSE,160,0.0,0.0,72,0.00,,,0.00,Wunderground v.1.15,2013-02-09 17:53:00,
2013-02-09 12:04:00,34.7,25.9,30.35,SSE,153,0.0,0.0,70,0.00,,,0.00,Wunderground v.1.15,2013-02-09 18:04:00,
2013-02-09 12:14:00,34.7,26.3,30.35,SSE,153,0.0,0.0,71,0.00,,,0.00,Wunderground v.1.15,2013-02-09 18:14:00,
2013-02-09 12:23:00,34.7,26.6,30.34,SSE,159,0.0,0.0,72,0.00,,,0.00,Wunderground v.1.15,2013-02-09 18:23:00,
2013-02-09 12:33:00,34.8,26.4,30.34,SSE,162,0.0,0.0,71,0.00,,,0.00,Wunderground v.1.15,2013-02-09 18:33:00,
2013-02-09 12:48:00,35.1,27.0,30.33,SE,142,0.0,0.0,72,0.00,,,0.00,Wunderground v.1.15,2013-02-09 18:48:00,
2013-02-09 12:53:00,35.2,26.7,30.33,SSE,151,0.0,0.0,71,0.00,,,0.00,Wunderground v.1.15,2013-02-09 18:53:00,
2013-02-09 13:04:00,35.4,26.6,30.32,SE,144,0.0,0.0,70,0.00,,,0.00,Wunderground v.1.15,2013-02-09 19:04:00,
2013-02-09 13:13:00,35.7,26.9,30.31,SE,138,0.0,0.0,70,0.00,,,0.00,Wunderground v.1.15,2013-02-09 19:13:00,
2013-02-09 13:23:00,35.7,26.9,30.31,SSE,167,0.0,0.0,70,0.00,,,0.00,Wunderground v.1.15,2013-02-09 19:23:00,
2013-02-09 13:33:00,35.5,27.0,30.30,SE,140,0.0,0.0,71,0.00,,,0.00,Wunderground v.1.15,2013-02-09 19:33:00,
2013-02-09 13:43:00,36.9,28.7,30.29,SSE,147,0.0,0.0,72,0.00,,,0.00,Wunderground v.1.15,2013-02-09 19:43:00,
2013-02-09 13:58:00,37.8,27.8,30.28,SE,132,0.0,0.0,67,0.00,,,0.00,Wunderground v.1.15,2013-02-09 19:58:00,
2013-02-09 14:03:00,37.2,27.6,30.27,SSE,153,0.0,0.0,68,0.00,,,0.00,Wunderground v.1.15,2013-02-09 20:03:00,
2013-02-09 14:13:00,37.8,29.6,30.27,SE,133,0.0,0.0,72,0.00,,,0.00,Wunderground v.1.15,2013-02-09 20:13:00,
2013-02-09 14:23:00,37.3,28.4,30.26,SE,132,0.0,0.0,70,0.00,,,0.00,Wunderground v.1.15,2013-02-09 20:23:00,
2013-02-09 14:33:00,37.3,28.4,30.26,SE,130,0.0,0.0,70,0.00,,,0.00,Wunderground v.1.15,2013-02-09 20:33:00,
2013-02-09 14:43:00,38.2,29.3,30.25,SSE,155,0.0,0.0,70,0.00,,,0.00,Wunderground v.1.15,2013-02-09 20:43:00,
2013-02-09 14:58:00,38.9,29.6,30.25,SSE,150,0.0,0.0,69,0.00,,,0.00,Wunderground v.1.15,2013-02-09 20:58:00,
2013-02-09 15:08:00,38.8,28.8,30.24,SSE,149,0.0,0.0,67,0.00,,,0.00,Wunderground v.1.15,2013-02-09 21:08:00,
2013-02-09 15:13:00,37.8,28.2,30.25,SE,146,0.0,0.0,68,0.00,,,0.00,Wunderground v.1.15,2013-02-09 21:13:00,
2013-02-09 15:28:00,38.2,28.6,30.24,SE,128,0.0,0.0,68,0.00,,,0.00,Wunderground v.1.15,2013-02-09 21:28:00,
2013-02-09 15:33:00,38.2,29.3,30.23,SSE,148,0.0,0.0,70,0.00,,,0.00,Wunderground v.1.15,2013-02-09 21:33:00,
2013-02-09 15:48:00,38.2,28.9,30.22,SE,136,0.0,0.0,69,0.00,,,0.00,Wunderground v.1.15,2013-02-09 21:48:00,
2013-02-09 15:58:00,37.9,29.0,30.22,SSE,148,0.0,0.0,70,0.00,,,0.00,Wunderground v.1.15,2013-02-09 21:58:00,
2013-02-09 16:03:00,37.3,28.4,30.21,SE,132,0.0,0.0,70,0.00,,,0.00,Wunderground v.1.15,2013-02-09 22:03:00,
2013-02-09 16:13:00,37.3,29.1,30.21,SE,131,0.0,0.0,72,0.00,,,0.00,Wunderground v.1.15,2013-02-09 22:13:00,
2013-02-09 16:24:00,37.3,29.4,30.20,SE,138,0.0,0.0,73,0.00,,,0.00,Wunderground v.1.15,2013-02-09 22:24:00,
2013-02-09 16:33:00,36.6,29.1,30.20,SE,130,0.0,0.0,74,0.00,,,0.00,Wunderground v.1.15,2013-02-09 22:33:00,
2013-02-09 16:43:00,36.4,29.6,30.20,SE,129,0.0,0.0,76,0.00,,,0.00,Wunderground v.1.15,2013-02-09 22:43:00,
2013-02-09 16:53:00,36.4,29.9,30.19,SE,132,0.0,0.0,77,0.00,,,0.00,Wunderground v.1.15,2013-02-09 22:53:00,
2013-02-09 17:03:00,36.7,30.2,30.19,SE,130,0.0,0.0,77,0.00,,,0.00,Wunderground v.1.15,2013-02-09 23:03:00,
2013-02-09 17:13:00,36.6,30.1,30.19,ESE,116,0.0,0.0,77,0.00,,,0.00,Wunderground v.1.15,2013-02-09 23:13:00,
2013-02-09 17:23:00,36.4,30.2,30.18,ESE,111,0.0,0.0,78,0.00,,,0.00,Wunderground v.1.15,2013-02-09 23:23:00,
2013-02-09 17:33:00,36.0,29.8,30.17,ESE,110,0.0,0.0,78,0.00,,,0.00,Wunderground v.1.15,2013-02-09 23:33:00,
2013-02-09 17:43:00,35.5,29.6,30.17,ESE,105,0.0,0.0,79,0.00,,,0.00,Wunderground v.1.15,2013-02-09 23:43:00,
2013-02-09 17:53:00,35.4,29.8,30.17,ESE,109,0.0,0.0,80,0.00,,,0.00,Wunderground v.1.15,2013-02-09 23:53:00,
2013-02-09 18:08:00,35.4,29.8,30.17,SE,134,0.0,0.0,80,0.00,,,0.00,Wunderground v.1.15,2013-02-10 00:08:00,
2013-02-09 18:13:00,35.5,29.9,30.17,SE,126,0.0,0.0,80,0.00,,,0.00,Wunderground v.1.15,2013-02-10 00:13:00,
2013-02-09 18:23:00,35.5,29.9,30.16,SE,127,0.0,0.0,80,0.00,,,0.00,Wunderground v.1.15,2013-02-10 00:23:00,
2013-02-09 18:33:00,35.7,30.1,30.16,SE,132,0.0,0.0,80,0.00,,,0.00,Wunderground v.1.15,2013-02-10 00:33:00,
2013-02-09 18:43:00,35.7,30.1,30.16,SE,129,0.0,0.0,80,0.00,,,0.00,Wunderground v.1.15,2013-02-10 00:43:00,
2013-02-09 18:58:00,35.8,30.5,30.16,SE,136,0.0,0.0,81,0.00,,,0.00,Wunderground v.1.15,2013-02-10 00:58:00,
2013-02-09 19:03:00,35.8,30.5,30.16,SE,132,0.0,0.0,81,0.00,,,0.00,Wunderground v.1.15,2013-02-10 01:03:00,
2013-02-09 19:18:00,36.3,31.0,30.16,SE,131,0.0,0.0,81,0.00,,,0.00,Wunderground v.1.15,2013-02-10 01:18:00,
2013-02-09 19:23:00,36.3,30.7,30.16,SE,130,0.0,0.0,80,0.00,,,0.00,Wunderground v.1.15,2013-02-10 01:23:00,
2013-02-09 19:33:00,36.4,30.8,30.16,SE,136,0.0,0.0,80,0.00,,,0.00,Wunderground v.1.15,2013-02-10 01:33:00,
2013-02-09 19:43:00,36.4,30.5,30.15,SE,132,0.0,0.0,79,0.00,,,0.00,Wunderground v.1.15,2013-02-10 01:43:00,
2013-02-09 19:53:00,36.3,30.4,30.15,SE,131,0.0,0.0,79,0.00,,,0.00,Wunderground v.1.15,2013-02-10 01:53:00,
2013-02-09 20:08:00,36.0,30.4,30.15,SE,135,0.0,0.0,80,0.00,,,0.00,Wunderground v.1.15,2013-02-10 02:08:00,
2013-02-09 20:14:00,35.8,30.2,30.15,SE,135,0.0,0.0,80,0.00,,,0.00,Wunderground v.1.15,2013-02-10 02:14:00,
2013-02-09 20:23:00,35.7,30.1,30.14,SE,134,0.0,0.0,80,0.00,,,0.00,Wunderground v.1.15,2013-02-10 02:23:00,
2013-02-09 20:33:00,35.8,30.2,30.14,SE,136,0.0,0.0,80,0.00,,,0.00,Wunderground v.1.15,2013-02-10 02:33:00,
2013-02-09 20:43:00,36.1,30.2,30.14,SE,146,0.0,0.0,79,0.00,,,0.00,Wunderground v.1.15,2013-02-10 02:43:00,
2013-02-09 20:53:00,36.3,30.4,30.13,SE,132,0.0,0.0,79,0.00,,,0.00,Wunderground v.1.15,2013-02-10 02:53:00,
2013-02-09 21:03:00,36.4,30.5,30.13,SE,141,0.0,0.0,79,0.00,,,0.00,Wunderground v.1.15,2013-02-10 03:03:00,
2013-02-09 21:13:00,36.6,30.4,30.12,SE,136,0.0,0.0,78,0.00,,,0.00,Wunderground v.1.15,2013-02-10 03:13:00,
2013-02-09 21:28:00,36.6,30.4,30.12,SE,134,0.0,0.0,78,0.00,,,0.00,Wunderground v.1.15,2013-02-10 03:28:00,
2013-02-09 21:33:00,36.6,30.4,30.12,SE,132,0.0,0.0,78,0.00,,,0.00,Wunderground v.1.15,2013-02-10 03:33:00,
2013-02-09 21:48:00,36.6,30.4,30.11,SE,132,0.0,0.0,78,0.00,,,0.00,Wunderground v.1.15,2013-02-10 03:48:00,
2013-02-09 21:58:00,36.9,30.4,30.10,SE,136,0.0,0.0,77,0.00,,,0.00,Wunderground v.1.15,2013-02-10 03:58:00,
2013-02-09 22:03:00,37.0,30.5,30.09,SE,136,0.0,0.0,77,0.00,,,0.00,Wunderground v.1.15,2013-02-10 04:03:00,
2013-02-09 22:13:00,36.9,30.4,30.09,SE,136,0.0,0.0,77,0.00,,,0.00,Wunderground v.1.15,2013-02-10 04:13:00,
2013-02-09 22:28:00,36.9,30.4,30.09,SE,140,0.0,0.0,77,0.00,,,0.00,Wunderground v.1.15,2013-02-10 04:28:00,
2013-02-09 22:33:00,36.9,30.4,30.08,SE,135,0.0,0.0,77,0.00,,,0.00,Wunderground v.1.15,2013-02-10 04:33:00,
2013-02-09 22:43:00,36.9,30.4,30.08,SE,143,0.0,0.0,77,0.00,,,0.00,Wunderground v.1.15,2013-02-10 04:43:00,
2013-02-09 22:54:00,36.9,30.7,30.08,SE,140,0.0,0.0,78,0.00,,,0.00,Wunderground v.1.15,2013-02-10 04:54:00,
2013-02-09 23:03:00,37.0,30.5,30.08,SE,137,0.0,0.0,77,0.00,,,0.00,Wunderground v.1.15,2013-02-10 05:03:00,
2013-02-09 23:08:00,37.0,30.5,30.08,SE,146,0.0,0.0,77,0.00,,,0.00,Wunderground v.1.15,2013-02-10 05:08:00,
2013-02-09 23:13:00,37.0,30.5,30.08,SE,138,0.0,0.0,77,0.00,,,0.00,Wunderground v.1.15,2013-02-10 05:13:00,
2013-02-09 23:18:00,37.0,30.5,30.07,SE,139,0.0,0.0,77,0.00,,,0.00,Wunderground v.1.15,2013-02-10 05:18:00,
2013-02-09 23:23:00,37.0,30.8,30.07,SE,144,0.0,0.0,78,0.00,,,0.00,Wunderground v.1.15,2013-02-10 05:23:00,
2013-02-09 23:38:00,37.3,30.7,30.08,SSE,159,0.0,0.0,77,0.00,,,0.00,Wunderground v.1.15,2013-02-10 05:38:00,
2013-02-09 23:43:00,37.5,30.9,30.08,SE,144,0.0,0.0,77,0.00,,,0.00,Wunderground v.1.15,2013-02-10 05:43:00,
2013-02-09 23:53:00,37.5,30.9,30.09,SSE,149,0.0,0.0,77,0.00,,,0.00,Wunderground v.1.15,2013-02-10 05:53:00,
2013-02-09 23:58:00,37.5,30.6,30.09,SSE,156,0.0,0.0,76,0.00,,,0.00,Wunderground v.1.15,2013-02-10 05:58:00,